www.pogodaiklimat.ru

Погода и климат >> Архив погоды >> Россия >> Камчатский край >> Семячик


АРХИВ ПОГОДЫ в Семячике

Время (UTC), дата Ветер
(напр.,м/с)
 
Видим.   Явления Облачность Т
(С)
Тd
(С)
f
(%)
Тe
(С)
Тes
(С)
Комфортность P
(гПа)
Po
(гПа)
Тmin
(С)
Tmax
(С)
R
(мм)
R24
(мм)
S
(см)
00 18.03 Ю 2 50 км 8/0
[Ac trans Ci fib]
-3.8 -11.2 56 -7 -3 1005.6 1002.1
03 18.03 Ю 5 50 км 8/0
[Ac trans Ci sp]
-2.2 -8.3 63 -8 -6 1004.1 1000.7
06 18.03 З 2 50 км 8/4 600 м
[Sc Ac trans Ci sp]
-0.7 -13.7 37 -3 -3 1003.8 1000.4
09 18.03 З 2 20 км 10/8 600 м
[Sc Ci sp]
-2.8 -12.1 49 -6 -6 1004.3 1000.8 +0.4
12 18.03 ЮЗ 1 20 км 10/0
[Ac trans]
-4.1 -11.8 55 -6 -6 1004.5 1001.1
15 18.03 С 1 20 км 10/0
[Ac trans]
-4.1 -12.3 53 -6 -6 1004.1 1000.7
18 18.03 С 2 20 км 10/0
[Ac trans]
-5.6 -11.6 63 -10 -10 1004.3 1000.8
21 18.03 СЗ 2 50 км 6/0
[Ac trans Ci fib]
-5.2 -12.8 55 -9 -8 1004.6 1001.1 -6.8 0
00 19.03 Ю 6 50 км 9/0
[Ac trans Ci]
-1.7 -8.2 61 -8 -7 1004.1 1000.7
03 19.03 Ю 10-12
{12}
50 км 6/0
[Ci sp]
-1.1 -7.5 62 -9 -9 1002.7 999.3
06 19.03 Ю 8-10
{13}
50 км 6/3 600 м
[Sc Ac trans Ci sp]
-0.3 -6.2 64 -7 -7 1002.5 999.1
09 19.03 З 1
{11}
20 км 10/4 600 м
[Sc Ac As Ci sp]
-1.9 -8.5 61 -4 -4 1003.0 999.6 +1.7
12 19.03 СВ 10-13
{13}
20 км 10/10 600 м
[Sc]
-2.3 -6.0 76 -11 -11 1002.7 999.3
15 19.03 СВ 14-19
{19}
20 км 10/0 600 м
[]
-3.8 -5.0 91 -14 -14 1000.9 997.4
18 19.03 СВ 13-18
{20}
2000 м слаб. ливневой снег {метель} 10/10 300 м
[Cb cap]
-5.1 -5.7 96 -16 -16 999.0 995.6
21 19.03 СВ 18-22
{22}
500 м сильная метель {ливн. осадки} ?/? -5.1 -5.7 96 -17 -17 996.3 992.9 -5.2 8 5
00 20.03 СВ 17-22
{24}
500 м сильная метель {ливн. осадки} ?/? -4.0 -4.5 96 -16 -16 993.8 990.4
03 20.03 СВ 16-19
{24}
2000 м слаб. ливневой снег {метель} 10/10 300 м
[Cb cap]
-3.3 -3.7 97 -14 -14 991.8 988.5
06 20.03 СЗ 10-16
{19}
500 м сильная метель {ливн. осадки} ?/? -6.8 -7.5 95 -17 -17 991.8 988.5
09 20.03 СЗ 12-19
{21}
2000 м слаб. ливневой снег {метель} 10/10 300 м
[Cb cap]
-8.4 -9.6 91 -20 -20 994.4 990.9 -2.8 10
12 20.03 СЗ 12-19
{21}
10 км метель {ливн. осадки} 9/9 600 м
[Sc]
-8.5 -11.1 81 -20 -20 994.8 991.3
15 20.03 СЗ 13-24
{24}
20 км пыльная буря {метель} 10/10 600 м
[Sc]
-7.9 -13.9 62 -19 -19 994.6 991.2
18 20.03 СЗ 14-22
{24}
20 км позёмок 10/10 600 м
[Sc]
-8.3 -15.0 58 -20 -20 993.6 990.2
21 20.03 СЗ 15-23
{24}
50 км позёмок 10/10 600 м
[Sc]
-8.4 -16.7 51 -20 -20 993.5 990.1 -8.9 0.8 2
00 21.03 СЗ 12-19
{25}
50 км позёмок 9/6 600 м
[Sc Ac trans Ci fib]
-7.1 -15.8 50 -18 -18 994.6 991.1
03 21.03 СЗ 12-19
{22}
50 км позёмок 9/6 600 м
[Sc Ac trans Ci sp]
-5.8 -15.7 45 -16 -16 994.8 991.4
06 21.03 СЗ 13-21
{22}
50 км позёмок 9/6 600 м
[Sc Ac trans Ci sp]
-5.7 -15.6 46 -16 -16 996.6 993.2
09 21.03 СЗ 11-18
{23}
20 км позёмок 10/10 600 м
[Sc]
-6.7 -16.5 46 -17 -17 999.1 995.6 -5.5
12 21.03 СЗ 13-21
{21}
20 км {метель} 10/10 600 м
[Sc]
-7.6 -15.5 53 -19 -19 1001.6 998.2
15 21.03 СЗ 11-19
{21}
20 км 10/6 600 м
[Sc Ac trans Ci sp]
-7.9 -14.3 60 -18 -18 1003.1 999.6
18 21.03 СЗ 10-15
{19}
20 км 10/4 600 м
[Sc Ac trans Ci fib]
-7.3 -15.2 53 -17 -17 1004.7 1001.2
21 21.03 СЗ 7-11
{15}
50 км 8/8 600 м
[Sc]
-6.1 -12.7 60 -14 -14 1006.8 1003.3 -8.1 1
00 22.03 СЗ 5
{11}
50 км в посл. час ливневой снег 6/6 600 м
[Cb calv]
-3.2 -9.5 62 -10 -8 1007.7 1004.3
03 22.03 СВ 8-10
{12}
50 км 6/6 600 м
[Sc]
-1.4 -4.8 78 -9 -9 1007.7 1004.3
06 22.03 В 5
{13}
50 км {ливн. осадки} 9/9 600 м
[Sc]
-2.8 -5.1 84 -10 -9 1007.2 1003.7
09 22.03 В 4 4000 м слаб. ливневой снег 10/10 300 м
[Cb cap]
-3.2 -5.0 87 -9 -9 1007.0 1003.6 -1.0 0.4
12 22.03 В 5 2000 м слаб. ливневой снег 10/10 300 м
[Cb cap]
-3.5 -5.1 89 -10 -10 1005.8 1002.4
15 22.03 В 9-11
{11}
20 км {ливн. осадки} 10/10 600 м
[Sc]
-3.3 -4.5 91 -12 -12 1003.6 1000.1
18 22.03 СВ 13-15
{18}
2000 м слаб. ливневой снег {метель} 10/10 300 м
[Cb cap]
-3.4 -3.8 97 -14 -14 1000.7 997.2
21 22.03 СВ 14-18
{19}
2000 м слаб. ливневой снег {метель} 10/10 300 м
[Cb cap]
-3.0 -3.3 98 -14 -14 997.7 994.3 -3.8 2 4
00 23.03 СВ 17-22
{23}
2000 м слаб. ливневой снег {метель} 10/10 300 м
[Cb cap]
-2.3 -2.6 98 -13 -13 993.9 990.5
03 23.03 СВ 15-19
{23}
500 м сильная метель {ливн. осадки} ?/? -1.8 -2.0 99 -12 -12 989.0 985.7
06 23.03 СВ 16-21
{25}
500 м сильная метель {ливн. осадки} ?/? -1.5 -1.6 99 -12 -12 984.3 981.0
09 23.03 СВ 22-27
{29}
50 м сильная метель ?/? -1.8 -2.0 99 -14 -14 981.7 978.3 -1.4 11
12 23.03 СВ 20-27
{31}
500 м сильная метель ?/? -1.9 -2.2 98 -13 -13 981.4 978.1
15 23.03 СВ 18-23
{28}
500 м сильная метель ?/? -1.8 -2.5 95 -13 -13 982.4 979.0
18 23.03 СВ 9-11
{23}
10 км метель {ливн. осадки} 10/10 600 м
[Sc]
-1.2 -4.4 79 -9 -9 983.9 980.6
21 23.03 СЗ 3
{13}
20 км {метель} 10/10 600 м
[Sc]
-1.0 -7.1 63 -5 -5 985.5 982.1 -2.2 2 3
00 24.03 СЗ 2 4000 м слаб. ливневой снег {метель} 10/10 300 м
[Cb cap]
-1.4 -5.8 72 -5 -5 987.0 983.7
03 24.03 Ю 4 20 км {ливн. осадки} 10/10 300 м
[St]
-0.8 -5.7 69 -6 -6 987.3 984.0
06 24.03 Ю 3 20 км {ливн. осадки} 10/10 300 м
[St]
-0.9 -6.2 67 -5 -5 988.2 984.9
09 24.03 З 1 20 км 10/10 600 м
[Sc]
-1.9 -10.0 54 -3 -3 989.2 985.8 +0.7 0.2
12 24.03 СЗ 4 20 км 8/4 600 м
[Sc Ac trans]
-3.3 -11.3 54 -9 -9 989.4 986.0
15 24.03 СЗ 3 20 км 8/4 600 м
[Sc Ac trans]
-4.5 -10.9 61 -10 -10 988.8 985.4
18 24.03 З 1 20 км 5/0
[Ac trans]
-6.6 -11.7 67 -9 -9 987.3 983.9
21 24.03 СЗ 3 50 км 8/0
[Ac trans Ci]
-4.7 -11.5 59 -10 -9 986.4 983.0 -7.6 1

 

Местоположение метеостанции Семячик (Камчатский край, Россия): широта 54.12 долгота 159.90 высота над уровнем моря 27 м.

В архиве по умолчанию представлена погода в Семячике за последнюю неделю. Архивные данные за месяц целиком и за предыдущие месяцы, начиная с января 2011 года, Вы можете получить, выбрав интересующий диапазон дат из раскрывающегося списка и нажав кнопку "Ввод!".


*Определитесь, кто Вы:
робот инопланетянин человек

Внимание! Время в таблицах - всемирное. Для получения местного времени необходимо прибавить поправку, которая равна 12 ч.

Смотрите также архив погоды в соседних городах и на ближайших метеорологических станциях:

Погода в Мильково (Камчатский край, Россия) (110 км)
Погода в Пущино (Камчатский край, Россия) (124 км)
Погода в Долиновке (Камчатский край, Россия) (125 км)
Погода в Петропавловск-Камч. 2 (Камчатский край, Россия) (148 км)
Погода в Сосновке (Камчатский край, Россия) (157 км)
Погода в Петропавловском Маяке (Камчатский край, Россия) (159 км)
Погода в Петропавловск-Камчатском (Камчатский край, Россия) (163 км)
Погода в Начиках (Камчатский край, Россия) (183 км)
Погода в Козыревске (Камчатский край, Россия) (215 км)
Погода в Эссо (Камчатский край, Россия) (215 км)

Пояснения к столбцам:

Ветер - указаны скорость ветра в м/с - средняя за 10 мин, порывы в срок и между сроками (в фигурных скобках) и направление, откуда дует ветер: С - северный, СВ - северо-восточный, В - восточный, ЮВ - юго-восточный, Ю - южный, ЮЗ - юго-западный, З - западный, СЗ - северо-западный.
Видимость - горизонтальная дальность видимости в метрах или километрах. При видимости от 1 до 10 км при отсутствии осадков обычно наблюдается дымка, при ухудшении видимости до 1 км и менее - туман. В сухую погоду видимость может ухудшаться дымом, пылью или мглою.
Явления - указаны атмосферные явления, наблюдавшиеся в срок или в последний час перед сроком; фигурными скобками обозначены явления, наблюдавшиеся между сроками (за 1-3 часа до срока); квадратными скобками обозначены град или гололедные отложения с указанием их диаметра в мм.
Облачность - указаны через наклонную черту общая и нижняя облачность в баллах и высота нижней границы облаков в метрах; квадратными скобками обозначены формы облаков: Ci - перистые, Cs - перисто-слоистые, Cc - перисто-кучевые, Ac - высококучевые, As - высокослоистые, Sc - слоисто-кучевые, Ns - слоисто-дождевые, Cu - кучевые, Cb - кучево-дождевые. Подробнее классификацию облаков см. в Атласе облаков (PDF).
T - Температура воздуха - температура, измеренная на высоте 2 м над землей.
Td - Температура точки росы - температура, при понижении до которой содержащийся в воздухе водяной пар достигнет насыщения.
f - Относительная влажность воздуха - влажноcть воздуха, измеренная на высоте 2 м над землей.
Te - Эффективная температура - температура, которую ощущает одетый по сезону человек в тени. Характеристика душности погоды. При расчете учитывается влияние влажности воздуха и скорости ветра на теплоощущения человека.
Tes - Эффективная температура на солнце - температура, которую ощущает человек, с поправкой на солнечный нагрев. Характеристика знойности погоды. Зависит от высоты солнца над горизонтом, облачности и скорости ветра. Ночью, в пасмурную погоду, а также при ветре 12 м/с и более поправка равна нулю.
P - Атмосферное давление - приведенное к уровню моря атмосферное давление.
Po - Атмосферное давление - измеренное на уровне метеостанции атмосферное давление.
Tmin - Минимальная температура - минимум температуры воздуха на высоте 2 м над землей.
Tmax - Максимальная температура - максимум температуры воздуха на высоте 2 м над землей.
R - Количество осадков - Количество выпавших осадков за период времени, мм. При наведении курсора мыши на число - период времени, за который выпало указанное количество осадков.
R24 - Количество осадков - Количество выпавших осадков за 24 часа, мм.
S - Снежный покров - Высота снежного покрова, см. При наведении курсора мыши на число - состояние снежного покрова и степень покрытия местности в баллах.